This demonstration page uses our WeatherBlox Daily Observations layout. Learn more.

Left ArrowRight Arrow

Hourly Observations for June 17, 2021

Temp ( °F °C ) Dew Point ( °F °C ) Humidity (%) Winds ( mph kmh ) Pressure ( in mb ) Visibility ( mi km ) Precip ( " mm )
12:15 am 00:15 Clear 81 27.1 60 15.8 50 50 S 9 15 29.78 1009 10 16 N/A
12:35 am 00:35 Clear 80 26.9 61 16 51 51 S 9 15 29.78 1009 10 16 N/A
12:55 am 00:55 Clear 80 26.6 61 16 52 52 N N/A 29.79 1009 10 16 N/A
1:15 am 01:15 Clear 77 24.8 61 16 58 58 WNW 8 13 29.81 1010 10 16 N/A
1:35 am 01:35 Clear 75 24.1 61 16 61 61 W 7 11 29.82 1010 10 16 N/A
1:55 am 01:55 Clear 75 23.8 61 16 62 62 N N/A 29.83 1010 10 16 N/A
2:15 am 02:15 Clear 74 23.2 61 15.9 64 64 N N/A 29.84 1010 10 16 N/A
2:35 am 02:35 Clear 73 22.9 61 15.9 65 65 W 3 6 29.83 1010 10 16 N/A
2:55 am 02:55 Clear 76 24.6 60 15.7 58 58 W 5 7 29.81 1010 10 16 N/A
3:15 am 03:15 Clear 76 24.5 60 15.7 58 58 W 6 9 29.81 1010 10 16 N/A
3:35 am 03:35 Clear 74 23.6 61 15.9 62 62 WSW 3 6 29.81 1010 10 16 N/A
3:55 am 03:55 Clear 71 21.7 60 15.6 68 68 NW 7 11 29.82 1010 10 16 N/A
4:15 am 04:15 Clear 71 21.8 61 16.1 70 70 N N/A 29.81 1009 10 16 N/A
4:35 am 04:35 Clear 69 20.4 60 15.7 75 75 N 3 6 29.82 1010 10 16 N/A
4:55 am 04:55 Clear 68 20 60 15.6 76 76 NE 3 6 29.82 1010 10 16 N/A
5:15 am 05:15 Clear 69 20.4 60 15.5 74 74 NNE 5 7 29.82 1010 10 16 N/A
5:35 am 05:35 Clear 67 19.7 60 15.5 77 77 ENE 6 9 29.82 1010 10 16 N/A
5:55 am 05:55 Clear 65 18.5 60 15.5 83 83 E 6 9 29.84 1010 10 16 N/A
6:15 am 06:15 Sunny 66 19 61 16 83 83 E 3 6 29.83 1010 10 16 N/A
6:35 am 06:35 Sunny 65 18.5 61 15.9 85 85 N N/A 29.85 1011 10 16 N/A
6:55 am 06:55 Sunny 65 18.5 61 16.2 87 87 N 3 6 29.85 1011 7 11 N/A
7:15 am 07:15 Sunny 67 19.5 62 16.5 83 83 N 5 7 29.83 1010 7 11 N/A
7:35 am 07:35 Sunny 70 21.3 62 16.9 76 76 NE 5 7 29.81 1010 7 11 N/A
7:55 am 07:55 Sunny 73 22.7 63 17.2 71 71 NNE 3 6 29.80 1009 7 11 N/A
8:15 am 08:15 Sunny 74 23.1 65 18.1 74 74 NE 5 7 29.80 1009 10 16 N/A
8:35 am 08:35 Sunny 76 24.4 65 18.3 69 69 ENE 3 6 29.79 1009 7 11 N/A
8:55 am 08:55 Sunny 77 24.8 65 18.4 68 68 N N/A 29.78 1009 7 11 N/A
9:15 am 09:15 Sunny 78 25.5 65 18.2 64 64 E 5 7 29.78 1008 10 16 N/A
9:35 am 09:35 Hazy 80 26.4 65 18.2 61 61 ESE 6 9 29.77 1008 4 6 N/A
9:55 am 09:55 Hazy 80 26.9 64 17.8 58 58 ESE 3 6 29.75 1008 5 8 N/A
10:15 am 10:15 Sunny 82 27.8 65 18.1 56 56 N N/A 29.75 1007 10 16 N/A
10:35 am 10:35 Sunny 83 28.2 64 18 54 54 N N/A 29.74 1007 10 16 N/A
10:55 am 10:55 Sunny 85 29.5 65 18.2 51 51 N N/A 29.73 1007 10 16 N/A
11:15 am 11:15 Sunny 86 29.9 65 18.6 51 51 WNW 5 7 29.73 1007 10 16 N/A
11:35 am 11:35 Sunny 87 30.5 66 18.7 49 49 E 3 6 29.73 1007 10 16 N/A
11:55 am 11:55 Sunny 88 31.2 66 18.7 47 47 NNW 3 6 29.72 1006 10 16 N/A
12:15 pm 12:15 Sunny 89 31.4 65 18.4 46 46 N N/A 29.71 1006 10 16 N/A
12:35 pm 12:35 Sunny 91 33 66 18.8 43 43 S 5 7 29.69 1005 10 16 N/A
12:55 pm 12:55 Sunny 91 33 66 19 44 44 SSE 5 7 29.69 1005 10 16 N/A
1:15 pm 13:15 Sunny 95 34.8 66 18.9 39 39 SSW 6 9 29.67 1005 10 16 N/A
1:35 pm 13:35 Sunny 96 35.6 64 17.6 34 34 SSW 6 9 29.66 1004 10 16 N/A
1:55 pm 13:55 Sunny 97 36.2 64 18 34 34 SW 10 17 29.64 1004 10 16 N/A
2:15 pm 14:15 Sunny 99 37.1 65 18.2 33 33 S 10 17 29.62 1003 10 16 N/A
2:35 pm 14:35 Sunny 100 37.8 65 18.5 32 32 S 9 15 29.61 1003 10 16 N/A
2:55 pm 14:55 Sunny 100 37.5 66 18.9 34 34 W 5 7 29.61 1003 10 16 N/A
3:15 pm 15:15 Sunny 100 38 65 18.5 32 32 N N/A 29.60 1002 10 16 N/A
3:35 pm 15:35 Sunny 102 38.9 64 17.8 29 29 W 7 11 29.58 1002 10 16 N/A
3:55 pm 15:55 Sunny 102 39 64 17.8 29 29 WSW 5 7 29.58 1002 10 16 N/A
4:15 pm 16:15 Sunny 101 38.6 64 17.6 29 29 N N/A 29.57 1001 10 16 N/A
4:35 pm 16:35 Sunny 102 39.1 64 18 29 29 NNE 3 6 29.57 1001 10 16 N/A
4:55 pm 16:55 Sunny 103 39.4 64 18 29 29 NW 6 9 29.56 1001 10 16 N/A
5:15 pm 17:15 Sunny 102 38.9 65 18.3 30 30 N 9 15 29.55 1001 10 16 N/A
5:35 pm 17:35 Sunny 99 37.1 70 21 39 39 N 12 19 29.57 1001 10 16 N/A
5:55 pm 17:55 Sunny 95 35.2 69 20.3 42 42 N 13 20 29.59 1002 10 16 N/A
6:15 pm 18:15 Sunny 95 35.2 69 20.7 43 43 NE 6 9 29.57 1001 10 16 N/A
6:35 pm 18:35 Sunny 94 34.5 70 21.2 46 46 N 9 15 29.60 1002 10 16 N/A
6:55 pm 18:55 Sunny 93 34.1 71 21.9 49 49 N 6 9 29.59 1002 10 16 N/A
7:15 pm 19:15 Sunny 94 34.4 70 21.3 46 46 NE 7 11 29.59 1002 10 16 N/A
7:35 pm 19:35 Sunny 92 33.2 72 22.2 52 52 NE 5 7 29.60 1002 10 16 N/A
7:55 pm 19:55 Sunny 91 33 72 22.1 53 53 NNE 7 11 29.60 1002 10 16 N/A
8:15 pm 20:15 Sunny 90 32.1 71 21.5 53 53 NE 8 13 29.60 1002 10 16 N/A
8:35 pm 20:35 Sunny 89 31.5 70 21.2 54 54 ENE 7 11 29.61 1003 10 16 N/A
8:55 pm 20:55 Sunny 88 31 70 21.1 56 56 ENE 7 11 29.61 1003 10 16 N/A
9:15 pm 21:15 Clear 86 30.1 70 21.2 59 59 ENE 7 11 29.63 1003 10 16 N/A
9:35 pm 21:35 Clear 84 29 70 21 62 62 ENE 7 11 29.65 1004 10 16 N/A
9:55 pm 21:55 Clear 83 28.6 70 21 64 64 E 7 11 29.65 1004 10 16 N/A
10:15 pm 22:15 Clear 83 28.5 69 20.8 63 63 ENE 8 13 29.67 1005 10 16 N/A
10:35 pm 22:35 Clear 83 28.2 69 20.7 64 64 ENE 9 15 29.67 1005 10 16 N/A
10:55 pm 22:55 Clear 82 27.5 69 20.7 66 66 ENE 9 15 29.69 1005 10 16 N/A
11:15 pm 23:15 Clear 81 27.2 69 20.6 67 67 ENE 12 19 29.69 1006 10 16 N/A
11:35 pm 23:35 Clear 80 26.9 69 20.6 68 68 ENE 8 13 29.70 1006 10 16 N/A
11:55 pm 23:55 Clear 79 26.2 69 20.3 70 70 ENE 9 15 29.70 1006 10 16 N/A

Powered by AerisWeather